Rechercher aéroport 
image banner adimage banner ad
image banner ad

DAUH - Hassi Messaoud/Oued Irara-Krim Belkacem

Situé à Hassi Messaoud, Algeria

ICAO - DAUH, IATA - HME

Données fournies par Airmate  

Information générale

Coordonnées: N31°40'26" E6°8'26"
Élévation : 459 feet MSL.
 
Voir autres Aéroports à Ouargla Province

Données opérationnelles

Accessible au public
Heure actuelle UTC:
Heure actuelle locale:
Météo
METAR: DAUH 301930Z 02002KT CAVOK 20/06 Q1025
TAF: TAF DAUH 301700Z 3018/3118 07006KT CAVOK
Voir NOTAMs / SUP AIP / TFR affectant cet aéroport [VIEW]
Fréquences de communication: [VIEW]

Pistes:

Identifiant RWYQFULongueur (ft)Largeur (ft)SurfaceLDA (ft)
18184°9843148ASP
369843148

Coordonnées de l'aéroport

Adresse: Hassi Messaoud Algeria

Autres services d'aviation

Aerial work

Tassili travail aérien

Tassili travail aérien
Évalué:
Voir évaluations:
[VIEW]

Vue satellite de DAUH